User: anonymous   Login
Location: Unspecified
(0.0000°N, 0.0000°E)
Time: 22:20:26
(UTC+00:00)
Language:

MOZHAYETS 4 - Orbit

View from above orbital plane
View from above orbital plane
View from above satellite
View from above satellite

Ground track
Ground track

The orbit data is extracted from the following two-line orbital elements,

1 27939U 03042A   17327.55336987  .00000172  00000-0  39382-4 0  9994
2 27939  97.9617 107.3879 0014295  82.0548 346.8427 14.66631383756670
Epoch (UTC): 23 November 2017 13:16:51
Eccentricity: 0.0014295
inclination: 97.9617°
perigee height: 662 km
apogee height: 682 km
right ascension of ascending node: 107.3879°
argument of perigee: 82.0548°
revolutions per day: 14.66631383
mean anomaly at epoch: 346.8427°
orbit number at epoch: 75667

The dashed part of the orbit path shows where the satellite is in the earth's shadow,  

DLR